Weather History for KBHM - May, 2014

Change the Weather History Date:

Wednesday, May 7, 2014

  Actual Average Record
Temperature  
Mean Temperature 74 °F 68 °F  
Max Temperature 86 °F 80 °F 91 °F (1952)
Min Temperature 61 °F 57 °F 37 °F (1944)
Cooling Degree Days 9 4  
Month to date cooling degree days 29 28  
Year to date cooling degree days 88 112  
Growing Degree Days 23 (Base 50)    
Moisture  
Dew Point 57 °F    
Average Humidity 59    
Maximum Humidity 84    
Minimum Humidity 34    
Precipitation  
Precipitation 0.00 in 0.16 in 5.71 in (2003)
Month to date precipitation 0.00 1.14  
Year to date precipitation 20.54 20.12  
Sea Level Pressure  
Sea Level Pressure 30.07 in    
Wind  
Wind Speed 7 mph (South)    
Max Wind Speed 18 mph    
Max Gust Speed 21 mph    
Visibility 10 miles    
Events      
T = Trace of Precipitation, MM = Missing Value Source: NWS Daily Summary

Daily Weather History Graph

Daily Weather History Graph

Search for Another Location

Airport or City:

Trip Planner

Search our weather history database for the weather conditions in past years. The results will help you decide how hot, cold, wet, or windy it might be!

Date:

Astronomy

May. 07, 2014 Rise Set
Actual Time 5:52 AM CDT 7:34 PM CDT
Civil Twilight 5:25 AM CDT 8:01 PM CDT
Nautical Twilight 4:53 AM CDT 8:34 PM CDT
Astronomical Twilight 4:19 AM CDT 9:08 PM CDT
Moon 12:59 PM CDT (5/7) 1:30 AM CDT (5/7)
Length of Visible Light 14h 35m
Length of Day
13h 41m
First Quarter, 55% of the Moon is Illuminated
May 7
First Quarter
May 14
Full
May 21
Last Quarter
May 28
New
Jun 5
First Quarter

Hourly Weather History & Observations

Time (CDT) Temp. Heat Index Dew Point Humidity Pressure Visibility Wind Dir Wind Speed Gust Speed Precip Events Conditions
12:53 AM 64.0 °F - 54.0 °F 70% 29.99 in 10.0 mi Calm Calm - N/A   Clear
1:53 AM 64.0 °F - 55.0 °F 73% 29.99 in 10.0 mi Calm Calm - N/A   Clear
2:53 AM 66.9 °F - 55.0 °F 66% 30.01 in 10.0 mi SSW 6.9 mph - N/A   Clear
3:53 AM 66.2 °F - 55.4 °F 68% 30.04 in 10.0 mi SSW 4.6 mph - N/A   Clear
4:53 AM 66.0 °F - 57.9 °F 75% 30.02 in 10.0 mi SSW 5.8 mph - N/A   Clear
5:53 AM 62.1 °F - 57.0 °F 84% 30.05 in 10.0 mi SSE 3.5 mph - N/A   Partly Cloudy
6:53 AM 64.9 °F - 59.0 °F 81% 30.08 in 10.0 mi SSE 3.5 mph - N/A   Scattered Clouds
7:53 AM 69.1 °F - 60.1 °F 73% 30.10 in 10.0 mi SSW 5.8 mph - N/A   Mostly Cloudy
8:53 AM 71.1 °F - 60.1 °F 68% 30.11 in 10.0 mi WSW 8.1 mph - N/A   Mostly Cloudy
9:53 AM 73.0 °F - 60.1 °F 64% 30.12 in 10.0 mi WSW 8.1 mph - N/A   Mostly Cloudy
10:53 AM 75.9 °F - 57.0 °F 52% 30.12 in 10.0 mi SW 9.2 mph - N/A   Scattered Clouds
11:53 AM 79.0 °F - 57.0 °F 47% 30.11 in 10.0 mi SSW 10.4 mph - N/A   Scattered Clouds
12:53 PM 81.0 °F 80.7 °F 55.0 °F 41% 30.10 in 10.0 mi SSW 10.4 mph - N/A   Scattered Clouds
1:53 PM 82.0 °F 81.3 °F 54.0 °F 38% 30.09 in 10.0 mi SSW 11.5 mph 18.4 mph N/A   Scattered Clouds
2:53 PM 82.9 °F 82.0 °F 55.0 °F 38% 30.08 in 10.0 mi SSW 9.2 mph 18.4 mph N/A   Scattered Clouds
3:53 PM 84.9 °F 83.6 °F 55.0 °F 36% 30.06 in 10.0 mi South 13.8 mph 17.3 mph N/A   Partly Cloudy
4:53 PM 84.2 °F 82.8 °F 53.6 °F 35% 30.09 in 10.0 mi SSE 11.5 mph 17.3 mph N/A   Scattered Clouds
5:53 PM 82.9 °F 82.0 °F 55.0 °F 38% 30.06 in 10.0 mi SSW 12.7 mph 17.3 mph N/A   Scattered Clouds
6:53 PM 81.0 °F 80.8 °F 55.9 °F 42% 30.06 in 10.0 mi South 11.5 mph - N/A   Clear
7:53 PM 77.0 °F - 55.9 °F 48% 30.07 in 10.0 mi South 4.6 mph - N/A   Partly Cloudy
8:53 PM 75.0 °F - 57.0 °F 53% 30.09 in 10.0 mi SSE 4.6 mph - N/A   Clear
9:53 PM 72.0 °F - 57.9 °F 61% 30.09 in 10.0 mi SE 4.6 mph - N/A   Clear
10:53 PM 72.0 °F - 57.9 °F 61% 30.09 in 10.0 mi SE 5.8 mph - N/A   Clear
11:53 PM 71.1 °F - 57.9 °F 63% 30.09 in 10.0 mi SSE 4.6 mph - N/A   Clear